When you browse on this site, cookies collect data to enhance your experience and personalize the content and advertising you see.
Visit our Privacy Policy to learn more. By continuing to use the site, you agree to this use of cookies and data.
  • în România
  • Lista ţărilor
  • Pe 7 zile
  • Temperatura apei
  • Meteo pe hartă
  • Widget-uri
  • user-avatar
    Intrare

    Meteo pe oră la Christchurch

    Astăzi, 7 Iunie, Duminică

    Timp Temperatura Precipitaţii Vânt Presiune Umiditate
    00:00 +3°C° 0 mm 2 m/s 757 mmHg 96%
    01:00 +2°C° 0 mm 2 m/s 757 mmHg 94%
    02:00 +2°C° 0 mm 2 m/s 757 mmHg 93%
    03:00 +3°C° 0 mm 1 m/s 757 mmHg 92%
    04:00 +3°C° 0 mm 1 m/s 757 mmHg 91%
    05:00 +3°C° 0 mm 1 m/s 757 mmHg 90%
    06:00 +1°C° 0 mm 2 m/s 757 mmHg 87%
    07:00 +2°C° 0 mm 2 m/s 757 mmHg 86%
    08:00 +3°C° 0 mm 2 m/s 757 mmHg 86%
    09:00 +2°C° 0 mm 3 m/s 758 mmHg 85%
    10:00 +5°C° 0 mm 2 m/s 757 mmHg 79%
    11:00 +7°C° 0 mm 2 m/s 757 mmHg 73%
    12:00 +10°C° 0 mm 2 m/s 757 mmHg 67%
    13:00 +10°C° 0 mm 2 m/s 756 mmHg 65%
    14:00 +12°C° 0 mm 1 m/s 756 mmHg 64%
    15:00 +13°C° 0 mm 1 m/s 756 mmHg 62%
    16:00 +11°C° 0 mm 1 m/s 757 mmHg 68%
    17:00 +8°C° 0 mm 2 m/s 757 mmHg 74%
    18:00 +6°C° 0 mm 2 m/s 757 mmHg 80%
    19:00 +6°C° 0 mm 2 m/s 758 mmHg 80%
    20:00 +5°C° 0 mm 2 m/s 758 mmHg 80%
    21:00 +5°C° 0 mm 2 m/s 759 mmHg 80%
    22:00 +4°C° 0 mm 2 m/s 759 mmHg 81%
    23:00 +4°C° 0 mm 2 m/s 759 mmHg 81%

    Mâine, 8 Iunie, Luni

    Timp Temperatura Precipitaţii Vânt Presiune Umiditate
    00:00 +4°C° 0 mm 2 m/s 759 mmHg 82%
    01:00 +4°C° 0 mm 2 m/s 760 mmHg 81%
    02:00 +5°C° 0 mm 1 m/s 760 mmHg 80%
    03:00 +4°C° 0 mm 1 m/s 760 mmHg 80%
    04:00 +4°C° 0 mm 1 m/s 760 mmHg 80%
    05:00 +4°C° 0 mm 1 m/s 760 mmHg 80%
    06:00 +4°C° 0 mm 1 m/s 760 mmHg 81%
    07:00 +5°C° 0 mm 1 m/s 761 mmHg 81%
    08:00 +5°C° 0 mm 1 m/s 761 mmHg 82%
    09:00 +5°C° 0 mm 2 m/s 761 mmHg 82%
    10:00 +8°C° 0 mm 1 m/s 761 mmHg 76%
    11:00 +10°C° 0 mm 1 m/s 762 mmHg 70%
    12:00 +12°C° 0 mm 1 m/s 762 mmHg 63%
    13:00 +12°C° 0 mm 1 m/s 761 mmHg 63%
    14:00 +12°C° 0 mm 1 m/s 761 mmHg 62%
    15:00 +13°C° 0 mm 1 m/s 761 mmHg 61%
    16:00 +11°C° 0 mm 1 m/s 761 mmHg 67%
    17:00 +9°C° 0 mm 1 m/s 761 mmHg 73%
    18:00 +7°C° 0 mm 1 m/s 761 mmHg 80%
    19:00 +7°C° 0 mm 1 m/s 761 mmHg 80%
    20:00 +6°C° 0 mm 2 m/s 762 mmHg 81%
    21:00 +5°C° 0 mm 2 m/s 762 mmHg 82%
    22:00 +5°C° 0 mm 2 m/s 762 mmHg 81%
    23:00 +5°C° 0 mm 2 m/s 762 mmHg 81%

    Poimâine, 9 Iunie, Marţi

    Timp Temperatura Precipitaţii Vânt Presiune Umiditate
    00:00 +5°C° 0 mm 2 m/s 762 mmHg 81%
    01:00 +4°C° 0 mm 2 m/s 762 mmHg 81%
    02:00 +4°C° 0 mm 2 m/s 762 mmHg 82%
    03:00 +4°C° 0 mm 2 m/s 762 mmHg 82%
    04:00 +4°C° 0 mm 2 m/s 763 mmHg 83%
    05:00 +4°C° 0 mm 2 m/s 763 mmHg 83%
    06:00 +4°C° 0 mm 2 m/s 763 mmHg 83%
    07:00 +4°C° 0 mm 2 m/s 764 mmHg 82%
    08:00 +5°C° 0 mm 2 m/s 764 mmHg 80%
    09:00 +5°C° 0 mm 2 m/s 765 mmHg 79%
    10:00 +8°C° 0 mm 2 m/s 765 mmHg 71%
    11:00 +11°C° 0 mm 1 m/s 765 mmHg 64%
    12:00 +13°C° 0 mm 1 m/s 765 mmHg 56%
    13:00 +14°C° 0 mm 1 m/s 765 mmHg 56%
    14:00 +14°C° 0 mm 1 m/s 764 mmHg 56%
    15:00 +13°C° 0 mm 0 m/s 764 mmHg 56%
    16:00 +12°C° 0 mm 1 m/s 765 mmHg 65%
    17:00 +10°C° 0 mm 1 m/s 765 mmHg 73%
    18:00 +8°C° 0 mm 1 m/s 766 mmHg 82%
    19:00 +8°C° 0 mm 1 m/s 766 mmHg 83%
    20:00 +7°C° 0 mm 1 m/s 767 mmHg 83%
    21:00 +6°C° 0 mm 2 m/s 767 mmHg 84%
    22:00 +6°C° 0 mm 2 m/s 767 mmHg 85%
    23:00 +6°C° 0 mm 2 m/s 767 mmHg 86%

    10 Iunie, Miercuri

    Timp Temperatura Precipitaţii Vânt Presiune Umiditate
    00:00 +5°C° 0 mm 2 m/s 767 mmHg 86%
    01:00 +5°C° 0 mm 2 m/s 767 mmHg 86%
    02:00 +5°C° 0 mm 2 m/s 767 mmHg 86%
    03:00 +6°C° 0 mm 1 m/s 767 mmHg 86%
    04:00 +5°C° 0 mm 2 m/s 767 mmHg 85%
    05:00 +5°C° 0 mm 2 m/s 767 mmHg 84%
    06:00 +4°C° 0 mm 2 m/s 767 mmHg 83%
    07:00 +5°C° 0 mm 2 m/s 767 mmHg 81%
    08:00 +5°C° 0 mm 2 m/s 767 mmHg 80%
    09:00 +5°C° 0 mm 2 m/s 767 mmHg 78%
    10:00 +8°C° 0 mm 2 m/s 766 mmHg 71%
    11:00 +11°C° 0 mm 1 m/s 766 mmHg 65%
    12:00 +13°C° 0 mm 1 m/s 766 mmHg 58%
    13:00 +13°C° 0 mm 1 m/s 766 mmHg 59%
    14:00 +13°C° 0 mm 1 m/s 765 mmHg 59%
    15:00 +13°C° 0 mm 1 m/s 764 mmHg 60%
    16:00 +12°C° 0 mm 1 m/s 765 mmHg 67%
    17:00 +10°C° 0 mm 1 m/s 765 mmHg 73%
    18:00 +8°C° 0 mm 1 m/s 765 mmHg 79%
    19:00 +8°C° 0 mm 1 m/s 765 mmHg 80%
    20:00 +6°C° 0 mm 2 m/s 765 mmHg 81%
    21:00 +6°C° 0 mm 2 m/s 765 mmHg 82%
    22:00 +6°C° 0 mm 2 m/s 765 mmHg 82%
    23:00 +6°C° 0 mm 2 m/s 765 mmHg 82%

    11 Iunie, Joi

    Timp Temperatura Precipitaţii Vânt Presiune Umiditate
    00:00 +6°C° 0 mm 2 m/s 764 mmHg 82%
    01:00 +5°C° 0 mm 2 m/s 764 mmHg 82%
    02:00 +6°C° 0 mm 1 m/s 764 mmHg 83%
    03:00 +6°C° 0 mm 1 m/s 764 mmHg 83%
    04:00 +6°C° 0 mm 1 m/s 763 mmHg 83%
    05:00 +6°C° 0 mm 1 m/s 763 mmHg 83%
    06:00 +5°C° 0 mm 2 m/s 763 mmHg 83%
    07:00 +5°C° 0 mm 2 m/s 763 mmHg 81%
    08:00 +5°C° 0 mm 2 m/s 763 mmHg 80%
    09:00 +6°C° 0 mm 2 m/s 763 mmHg 78%
    10:00 +8°C° 0 mm 2 m/s 762 mmHg 71%
    11:00 +12°C° 0 mm 2 m/s 762 mmHg 64%
    12:00 +14°C° 0 mm 2 m/s 762 mmHg 57%
    13:00 +14°C° 0 mm 2 m/s 761 mmHg 59%
    14:00 +14°C° 0 mm 2 m/s 760 mmHg 61%
    15:00 +14°C° 0 mm 2 m/s 760 mmHg 63%
    16:00 +13°C° 0 mm 2 m/s 760 mmHg 65%
    17:00 +12°C° 0 mm 2 m/s 759 mmHg 66%
    18:00 +10°C° 0 mm 2 m/s 759 mmHg 68%
    19:00 +10°C° 0 mm 3 m/s 759 mmHg 68%
    20:00 +10°C° 0 mm 4 m/s 759 mmHg 68%
    21:00 +9°C° 0 mm 5 m/s 760 mmHg 68%
    22:00 +10°C° 0 mm 4 m/s 760 mmHg 71%
    23:00 +8°C° 0 mm 4 m/s 760 mmHg 74%

    12 Iunie, Vineri

    Timp Temperatura Precipitaţii Vânt Presiune Umiditate
    00:00 +8°C° 0 mm 4 m/s 760 mmHg 77%
    01:00 +8°C° 0 mm 4 m/s 760 mmHg 81%
    02:00 +7°C° 0 mm 5 m/s 761 mmHg 85%
    03:00 +7°C° 0 mm 5 m/s 761 mmHg 89%
    04:00 +7°C° 0.2 mm 5 m/s 762 mmHg 89%
    05:00 +7°C° 0.2 mm 5 m/s 763 mmHg 89%
    06:00 +6°C° 0.2 mm 5 m/s 763 mmHg 89%
    07:00 +6°C° 0.5 mm 5 m/s 764 mmHg 89%
    08:00 +6°C° 0.5 mm 5 m/s 765 mmHg 89%
    09:00 +5°C° 0.5 mm 5 m/s 766 mmHg 89%
    10:00 +5°C° 0.1 mm 5 m/s 767 mmHg 85%
    11:00 +5°C° 0.1 mm 5 m/s 768 mmHg 81%
    12:00 +6°C° 0.1 mm 5 m/s 768 mmHg 78%
    13:00 +6°C° 0 mm 5 m/s 768 mmHg 76%
    14:00 +6°C° 0 mm 5 m/s 769 mmHg 73%
    15:00 +6°C° 0 mm 4 m/s 769 mmHg 71%
    16:00 +5°C° 0 mm 4 m/s 770 mmHg 73%
    17:00 +5°C° 0 mm 3 m/s 770 mmHg 76%
    18:00 +4°C° 0 mm 3 m/s 771 mmHg 78%
    19:00 +4°C° 0 mm 3 m/s 771 mmHg 78%
    20:00 +4°C° 0 mm 3 m/s 772 mmHg 79%
    21:00 +4°C° 0 mm 3 m/s 773 mmHg 80%
    22:00 +3°C° 0 mm 3 m/s 773 mmHg 81%
    23:00 +3°C° 0 mm 3 m/s 773 mmHg 82%
    Arată mai mult